GFSFLT1_prec_precacc24_111.txt.gz
Total_Precipitation_Accumulation
0.04 0.06 0.12 0.12 0.19 0.22 0.01 0.00 0.00 0.00 0.00 0.00 0.00 0.00 0.00 0.00 0.00 0.00 0.00 0.00 0.00 0.00 0.00 0.00 0.00 0.00 0.00 0.00 0.00 0.00 0.00 0.00 0.00
0.22 0.20 0.14 0.10 0.18 0.25 0.05 0.00 0.00 0.00 0.00 0.00 0.00 0.00 0.00 0.00 0.00 0.00 0.00 0.00 0.00 0.00 0.00 0.00 0.00 0.00 0.00 0.00 0.00 0.00 0.00 0.00 0.00
0.30 0.26 0.11 0.09 0.14 0.26 0.15 0.00 0.00 0.00 0.00 0.00 0.00 0.00 0.00 0.00 0.00 0.00 0.00 0.00 0.00 0.00 0.00 0.00 0.00 0.00 0.00 0.00 0.00 0.00 0.00 0.00 0.00
0.23 0.28 0.20 0.15 0.11 0.18 0.16 0.04 0.00 0.00 0.00 0.00 0.00 0.00 0.00 0.00 0.00 0.00 0.00 0.00 0.00 0.00 0.00 0.00 0.00 0.00 0.00 0.00 0.00 0.00 0.00 0.00 0.00
0.12 0.13 0.20 0.30 0.24 0.18 0.16 0.06 0.00 0.00 0.00 0.00 0.00 0.00 0.00 0.00 0.00 0.00 0.00 0.00 0.00 0.00 0.00 0.00 0.00 0.00 0.00 0.00 0.00 0.00 0.00 0.00 0.00
0.01 0.01 0.03 0.12 0.18 0.20 0.17 0.09 0.00 0.00 0.00 0.00 0.00 0.00 0.00 0.00 0.00 0.00 0.00 0.00 0.00 0.00 0.00 0.00 0.00 0.00 0.00 0.00 0.00 0.00 0.00 0.00 0.00
0.00 0.02 0.02 0.07 0.12 0.12 0.14 0.12 0.02 0.00 0.00 0.00 0.00 0.00 0.00 0.00 0.00 0.00 0.00 0.00 0.00 0.00 0.00 0.00 0.00 0.00 0.00 0.00 0.00 0.00 0.00 0.00 0.00
0.00 0.02 0.03 0.11 0.08 0.09 0.05 0.03 0.00 0.00 0.00 0.00 0.00 0.00 0.00 0.00 0.00 0.00 0.00 0.00 0.00 0.00 0.00 0.00 0.00 0.00 0.00 0.00 0.00 0.00 0.00 0.00 0.00
0.14 0.06 0.08 0.11 0.07 0.11 0.09 0.06 0.01 0.00 0.00 0.00 0.00 0.00 0.00 0.00 0.00 0.00 0.00 0.00 0.00 0.00 0.00 0.00 0.00 0.00 0.00 0.00 0.00 0.00 0.00 0.00 0.00
0.24 0.25 0.24 0.17 0.13 0.10 0.10 0.08 0.05 0.01 0.00 0.00 0.00 0.00 0.00 0.00 0.00 0.00 0.00 0.00 0.00 0.00 0.00 0.00 0.00 0.00 0.01 0.02 0.02 0.00 0.00 0.00 0.00
0.43 0.37 0.36 0.28 0.20 0.15 0.08 0.10 0.08 0.03 0.01 0.00 0.00 0.00 0.00 0.00 0.00 0.00 0.00 0.00 0.00 0.00 0.00 0.00 0.02 0.02 0.02 0.03 0.08 0.10 0.08 0.06 0.04
0.20 0.40 0.39 0.30 0.27 0.28 0.23 0.29 0.23 0.20 0.10 0.03 0.00 0.00 0.00 0.00 0.00 0.00 0.00 0.00 0.00 0.00 0.00 0.00 0.00 0.01 0.04 0.06 0.10 0.14 0.17 0.15 0.15
0.15 0.12 0.16 0.20 0.25 0.24 0.17 0.18 0.27 0.30 0.26 0.09 0.01 0.00 0.00 0.00 0.00 0.00 0.00 0.00 0.00 0.00 0.00 0.00 0.00 0.00 0.01 0.02 0.07 0.11 0.08 0.05 0.06
0.13 0.15 0.17 0.16 0.17 0.20 0.24 0.29 0.27 0.26 0.21 0.10 0.03 0.00 0.00 0.00 0.00 0.00 0.00 0.00 0.00 0.00 0.00 0.00 0.00 0.00 0.00 0.00 0.02 0.05 0.06 0.03 0.02
0.10 0.16 0.19 0.19 0.13 0.12 0.15 0.21 0.21 0.17 0.14 0.11 0.06 0.02 0.00 0.00 0.00 0.00 0.00 0.00 0.00 0.00 0.00 0.00 0.00 0.00 0.00 0.00 0.00 0.01 0.05 0.03 0.02
0.11 0.12 0.10 0.10 0.04 0.03 0.06 0.13 0.16 0.11 0.11 0.15 0.07 0.02 0.01 0.00 0.00 0.00 0.00 0.00 0.00 0.00 0.00 0.00 0.00 0.00 0.00 0.00 0.00 0.00 0.01 0.03 0.03
0.15 0.10 0.15 0.14 0.13 0.07 0.05 0.05 0.04 0.04 0.06 0.07 0.05 0.02 0.01 0.00 0.00 0.00 0.00 0.00 0.00 0.00 0.00 0.00 0.00 0.00 0.00 0.00 0.00 0.00 0.01 0.02 0.06
0.29 0.17 0.12 0.17 0.16 0.11 0.11 0.11 0.10 0.08 0.06 0.06 0.07 0.04 0.01 0.00 0.00 0.00 0.00 0.00 0.00 0.00 0.00 0.00 0.00 0.00 0.00 0.00 0.00 0.01 0.01 0.02 0.07
0.57 0.55 0.52 0.44 0.27 0.25 0.37 0.47 0.48 0.53 0.55 0.40 0.28 0.17 0.07 0.02 0.01 0.01 0.01 0.00 0.00 0.00 0.00 0.00 0.00 0.00 0.00 0.02 0.03 0.03 0.07 0.01 0.04
0.56 0.63 0.66 0.64 0.61 0.39 0.45 0.59 0.65 0.84 1.12 0.96 0.71 0.52 0.40 0.29 0.23 0.13 0.09 0.05 0.03 0.03 0.03 0.05 0.05 0.07 0.10 0.10 0.10 0.12 0.12 0.02 0.01

GFSFLT1_prec_precacc24_114.txt.gz
Total_Precipitation_Accumulation
0.04 0.05 0.12 0.12 0.19 0.27 0.07 0.00 0.00 0.00 0.00 0.00 0.00 0.00 0.00 0.00 0.00 0.00 0.00 0.00 0.00 0.00 0.00 0.00 0.00 0.00 0.00 0.00 0.00 0.00 0.00 0.00 0.00
0.25 0.21 0.14 0.10 0.19 0.37 0.19 0.00 0.00 0.00 0.00 0.00 0.00 0.00 0.00 0.00 0.00 0.00 0.00 0.00 0.00 0.00 0.00 0.00 0.00 0.00 0.00 0.00 0.00 0.00 0.00 0.00 0.00
0.35 0.31 0.13 0.09 0.16 0.37 0.29 0.04 0.00 0.00 0.00 0.00 0.00 0.00 0.00 0.00 0.00 0.00 0.00 0.00 0.00 0.00 0.00 0.00 0.00 0.00 0.00 0.00 0.00 0.00 0.00 0.00 0.00
0.25 0.31 0.22 0.17 0.14 0.24 0.21 0.15 0.01 0.00 0.00 0.00 0.00 0.00 0.00 0.00 0.00 0.00 0.00 0.00 0.00 0.00 0.00 0.00 0.00 0.00 0.00 0.00 0.00 0.00 0.00 0.00 0.00
0.11 0.13 0.21 0.31 0.26 0.20 0.21 0.16 0.07 0.00 0.00 0.00 0.00 0.00 0.00 0.00 0.00 0.00 0.00 0.00 0.00 0.00 0.00 0.00 0.00 0.00 0.00 0.00 0.00 0.00 0.00 0.00 0.00
0.01 0.01 0.02 0.11 0.19 0.24 0.24 0.18 0.04 0.00 0.00 0.00 0.00 0.00 0.00 0.00 0.00 0.00 0.00 0.00 0.00 0.00 0.00 0.00 0.00 0.00 0.00 0.00 0.00 0.00 0.00 0.00 0.00
0.00 0.02 0.01 0.06 0.13 0.17 0.21 0.20 0.06 0.00 0.00 0.00 0.00 0.00 0.00 0.00 0.00 0.00 0.00 0.00 0.00 0.00 0.00 0.00 0.00 0.00 0.00 0.00 0.00 0.00 0.00 0.00 0.00
0.00 0.02 0.03 0.11 0.08 0.11 0.08 0.06 0.01 0.00 0.00 0.00 0.00 0.00 0.00 0.00 0.00 0.00 0.00 0.00 0.00 0.00 0.00 0.00 0.00 0.00 0.00 0.00 0.00 0.00 0.00 0.00 0.00
0.14 0.06 0.08 0.12 0.08 0.11 0.11 0.08 0.01 0.00 0.00 0.00 0.00 0.00 0.00 0.00 0.00 0.00 0.00 0.00 0.00 0.00 0.00 0.00 0.00 0.00 0.00 0.00 0.00 0.00 0.00 0.00 0.00
0.24 0.25 0.25 0.21 0.16 0.12 0.12 0.11 0.12 0.06 0.00 0.00 0.00 0.00 0.00 0.00 0.00 0.00 0.00 0.00 0.00 0.00 0.00 0.01 0.00 0.00 0.00 0.01 0.01 0.00 0.00 0.00 0.00
0.44 0.38 0.38 0.30 0.23 0.19 0.13 0.14 0.16 0.13 0.04 0.01 0.00 0.00 0.00 0.00 0.00 0.00 0.00 0.00 0.00 0.00 0.00 0.00 0.02 0.02 0.02 0.02 0.03 0.05 0.06 0.05 0.04
0.21 0.42 0.43 0.36 0.35 0.40 0.37 0.41 0.33 0.30 0.14 0.05 0.01 0.00 0.00 0.00 0.00 0.00 0.00 0.00 0.00 0.00 0.00 0.00 0.00 0.02 0.04 0.07 0.07 0.10 0.14 0.13 0.15
0.15 0.13 0.19 0.30 0.39 0.40 0.32 0.33 0.42 0.44 0.35 0.15 0.03 0.00 0.00 0.00 0.00 0.00 0.00 0.00 0.00 0.00 0.00 0.00 0.00 0.00 0.01 0.02 0.05 0.11 0.09 0.06 0.07
0.14 0.18 0.23 0.25 0.27 0.27 0.32 0.41 0.38 0.39 0.31 0.17 0.06 0.01 0.00 0.00 0.00 0.00 0.00 0.00 0.00 0.00 0.00 0.00 0.00 0.00 0.00 0.00 0.00 0.04 0.06 0.04 0.03
0.11 0.17 0.20 0.22 0.20 0.20 0.25 0.32 0.34 0.28 0.20 0.19 0.12 0.06 0.01 0.00 0.00 0.00 0.00 0.00 0.00 0.00 0.00 0.00 0.00 0.00 0.00 0.00 0.00 0.00 0.06 0.04 0.02
0.07 0.10 0.10 0.11 0.07 0.05 0.08 0.16 0.18 0.13 0.14 0.22 0.10 0.05 0.03 0.02 0.00 0.00 0.00 0.00 0.00 0.00 0.00 0.00 0.00 0.00 0.00 0.00 0.00 0.00 0.01 0.04 0.03
0.15 0.09 0.15 0.14 0.13 0.08 0.05 0.05 0.05 0.05 0.09 0.10 0.09 0.05 0.02 0.01 0.00 0.00 0.00 0.00 0.00 0.00 0.00 0.00 0.00 0.00 0.00 0.00 0.00 0.00 0.00 0.02 0.09
0.32 0.20 0.11 0.15 0.17 0.11 0.10 0.07 0.10 0.08 0.07 0.06 0.06 0.04 0.01 0.00 0.00 0.00 0.00 0.00 0.00 0.00 0.00 0.00 0.00 0.00 0.00 0.00 0.00 0.01 0.01 0.02 0.08
0.68 0.64 0.44 0.34 0.26 0.23 0.26 0.31 0.33 0.32 0.28 0.22 0.18 0.12 0.07 0.03 0.01 0.01 0.01 0.00 0.00 0.00 0.00 0.00 0.00 0.00 0.00 0.02 0.03 0.03 0.07 0.01 0.03
0.67 0.70 0.72 0.66 0.62 0.47 0.49 0.59 0.58 0.58 0.60 0.51 0.48 0.46 0.39 0.30 0.23 0.13 0.09 0.05 0.03 0.03 0.03 0.05 0.05 0.07 0.10 0.10 0.10 0.12 0.12 0.02 0.01

GFSFLT1_prec_precacc24_117.txt.gz
Total_Precipitation_Accumulation
0.05 0.05 0.12 0.12 0.19 0.27 0.08 0.00 0.00 0.00 0.00 0.00 0.00 0.00 0.00 0.00 0.00 0.00 0.00 0.00 0.00 0.00 0.00 0.00 0.00 0.00 0.00 0.00 0.00 0.00 0.00 0.00 0.00
0.27 0.23 0.15 0.10 0.19 0.43 0.32 0.02 0.00 0.00 0.00 0.00 0.00 0.00 0.00 0.00 0.00 0.00 0.00 0.00 0.00 0.00 0.00 0.00 0.00 0.00 0.00 0.00 0.00 0.00 0.00 0.00 0.00
0.35 0.33 0.14 0.09 0.16 0.41 0.37 0.11 0.00 0.00 0.00 0.00 0.00 0.00 0.00 0.00 0.00 0.00 0.00 0.00 0.00 0.00 0.00 0.00 0.00 0.00 0.00 0.00 0.00 0.00 0.00 0.00 0.00
0.25 0.31 0.22 0.17 0.14 0.25 0.24 0.22 0.04 0.00 0.00 0.00 0.00 0.00 0.00 0.00 0.00 0.00 0.00 0.00 0.00 0.00 0.00 0.00 0.00 0.00 0.00 0.00 0.00 0.00 0.00 0.00 0.00
0.11 0.13 0.20 0.30 0.25 0.20 0.21 0.20 0.13 0.01 0.00 0.00 0.00 0.00 0.00 0.00 0.00 0.00 0.00 0.00 0.00 0.00 0.00 0.00 0.00 0.00 0.00 0.00 0.00 0.00 0.00 0.00 0.00
0.01 0.01 0.02 0.10 0.18 0.24 0.24 0.21 0.06 0.01 0.00 0.00 0.00 0.00 0.00 0.00 0.00 0.00 0.00 0.00 0.00 0.00 0.00 0.00 0.00 0.00 0.00 0.00 0.00 0.00 0.00 0.00 0.00
0.00 0.01 0.00 0.05 0.12 0.17 0.21 0.23 0.06 0.00 0.00 0.00 0.00 0.00 0.00 0.00 0.00 0.00 0.00 0.00 0.00 0.00 0.00 0.00 0.00 0.00 0.00 0.00 0.00 0.00 0.00 0.00 0.00
0.00 0.01 0.02 0.11 0.08 0.11 0.08 0.07 0.01 0.00 0.00 0.00 0.00 0.00 0.00 0.00 0.00 0.00 0.00 0.00 0.00 0.00 0.00 0.00 0.00 0.00 0.00 0.00 0.00 0.00 0.00 0.00 0.00
0.14 0.06 0.08 0.12 0.08 0.11 0.11 0.08 0.01 0.00 0.00 0.00 0.00 0.00 0.00 0.00 0.00 0.00 0.00 0.00 0.00 0.00 0.00 0.00 0.00 0.00 0.00 0.00 0.00 0.00 0.00 0.00 0.00
0.24 0.25 0.25 0.21 0.16 0.12 0.12 0.11 0.12 0.06 0.01 0.00 0.00 0.00 0.00 0.00 0.00 0.00 0.00 0.00 0.00 0.00 0.00 0.01 0.00 0.00 0.00 0.00 0.01 0.00 0.00 0.00 0.00
0.46 0.39 0.38 0.30 0.24 0.20 0.16 0.18 0.17 0.17 0.08 0.01 0.00 0.00 0.00 0.00 0.00 0.00 0.00 0.00 0.00 0.00 0.00 0.00 0.02 0.02 0.02 0.01 0.02 0.02 0.05 0.05 0.04
0.26 0.46 0.47 0.38 0.39 0.50 0.49 0.55 0.40 0.35 0.19 0.07 0.01 0.01 0.00 0.00 0.00 0.00 0.00 0.00 0.00 0.00 0.00 0.00 0.00 0.02 0.04 0.07 0.06 0.08 0.13 0.12 0.15
0.19 0.15 0.19 0.31 0.41 0.46 0.40 0.45 0.58 0.60 0.48 0.23 0.06 0.01 0.00 0.00 0.00 0.00 0.00 0.00 0.00 0.00 0.00 0.00 0.00 0.00 0.01 0.02 0.06 0.11 0.10 0.07 0.08
0.17 0.19 0.24 0.27 0.29 0.32 0.35 0.44 0.47 0.51 0.43 0.36 0.36 0.37 0.24 0.05 0.01 0.00 0.00 0.00 0.00 0.00 0.00 0.00 0.00 0.00 0.00 0.00 0.00 0.04 0.07 0.04 0.03
0.21 0.21 0.24 0.28 0.26 0.23 0.28 0.33 0.38 0.35 0.30 0.31 0.26 0.19 0.15 0.05 0.01 0.00 0.00 0.00 0.00 0.00 0.00 0.00 0.00 0.00 0.00 0.00 0.00 0.00 0.05 0.04 0.02
0.11 0.17 0.16 0.14 0.11 0.10 0.10 0.16 0.19 0.16 0.21 0.30 0.15 0.10 0.08 0.05 0.01 0.00 0.00 0.00 0.00 0.00 0.00 0.00 0.00 0.00 0.00 0.00 0.00 0.00 0.01 0.04 0.03
0.13 0.10 0.16 0.17 0.17 0.12 0.07 0.05 0.06 0.07 0.16 0.21 0.22 0.13 0.04 0.01 0.00 0.00 0.00 0.00 0.00 0.00 0.00 0.00 0.00 0.00 0.00 0.00 0.00 0.00 0.00 0.02 0.09
0.42 0.28 0.19 0.19 0.20 0.14 0.13 0.10 0.11 0.09 0.09 0.11 0.14 0.07 0.03 0.00 0.00 0.00 0.00 0.00 0.00 0.00 0.00 0.00 0.00 0.00 0.00 0.00 0.00 0.01 0.01 0.01 0.07
0.94 0.94 0.60 0.48 0.43 0.32 0.32 0.30 0.28 0.32 0.23 0.26 0.22 0.15 0.07 0.03 0.01 0.01 0.01 0.00 0.00 0.00 0.00 0.00 0.00 0.00 0.00 0.02 0.03 0.03 0.07 0.01 0.03
0.81 0.96 1.15 0.91 0.80 0.70 0.59 0.56 0.51 0.50 0.47 0.41 0.43 0.37 0.35 0.27 0.20 0.14 0.10 0.05 0.03 0.03 0.03 0.05 0.05 0.07 0.10 0.10 0.10 0.12 0.12 0.02 0.01

GFSFLT1_prec_precacc24_120.txt.gz
Total_Precipitation_Accumulation
0.04 0.05 0.11 0.12 0.19 0.27 0.10 0.01 0.00 0.00 0.00 0.00 0.00 0.00 0.00 0.00 0.00 0.00 0.00 0.00 0.00 0.00 0.00 0.00 0.00 0.00 0.00 0.00 0.00 0.00 0.00 0.00 0.00
0.25 0.22 0.14 0.10 0.19 0.43 0.36 0.04 0.00 0.00 0.00 0.00 0.00 0.00 0.00 0.00 0.00 0.00 0.00 0.00 0.00 0.00 0.00 0.00 0.00 0.00 0.00 0.00 0.00 0.00 0.00 0.00 0.00
0.32 0.32 0.13 0.09 0.16 0.41 0.39 0.14 0.00 0.00 0.00 0.00 0.00 0.00 0.00 0.00 0.00 0.00 0.00 0.00 0.00 0.00 0.00 0.00 0.00 0.00 0.00 0.00 0.00 0.00 0.00 0.00 0.00
0.24 0.30 0.22 0.17 0.14 0.25 0.24 0.24 0.07 0.00 0.00 0.00 0.00 0.00 0.00 0.00 0.00 0.00 0.00 0.00 0.00 0.00 0.00 0.00 0.00 0.00 0.00 0.00 0.00 0.00 0.00 0.00 0.00
0.11 0.13 0.20 0.30 0.26 0.22 0.22 0.23 0.19 0.03 0.00 0.00 0.00 0.00 0.00 0.00 0.00 0.00 0.00 0.00 0.00 0.00 0.00 0.00 0.00 0.00 0.00 0.00 0.00 0.00 0.00 0.00 0.00
0.01 0.01 0.02 0.10 0.16 0.24 0.27 0.23 0.08 0.01 0.00 0.00 0.00 0.00 0.00 0.00 0.00 0.00 0.00 0.00 0.00 0.00 0.00 0.00 0.00 0.00 0.00 0.00 0.00 0.00 0.00 0.00 0.00
0.00 0.01 0.00 0.05 0.11 0.16 0.22 0.24 0.07 0.00 0.00 0.00 0.00 0.00 0.00 0.00 0.00 0.00 0.00 0.00 0.00 0.00 0.00 0.00 0.00 0.00 0.00 0.00 0.00 0.00 0.00 0.00 0.00
0.00 0.01 0.02 0.10 0.07 0.11 0.08 0.08 0.01 0.00 0.00 0.00 0.00 0.00 0.00 0.00 0.00 0.00 0.00 0.00 0.00 0.00 0.00 0.00 0.00 0.00 0.00 0.00 0.00 0.00 0.00 0.00 0.00
0.14 0.06 0.08 0.12 0.08 0.12 0.11 0.08 0.01 0.00 0.00 0.00 0.00 0.00 0.00 0.00 0.00 0.00 0.00 0.00 0.00 0.00 0.00 0.00 0.00 0.00 0.00 0.00 0.00 0.00 0.00 0.00 0.00
0.19 0.24 0.25 0.21 0.16 0.12 0.12 0.11 0.12 0.06 0.01 0.00 0.00 0.00 0.00 0.00 0.00 0.00 0.00 0.00 0.00 0.00 0.00 0.01 0.00 0.00 0.00 0.00 0.00 0.00 0.00 0.00 0.00
0.44 0.37 0.38 0.30 0.24 0.21 0.20 0.25 0.21 0.17 0.09 0.03 0.01 0.00 0.01 0.00 0.00 0.00 0.00 0.00 0.00 0.00 0.00 0.00 0.02 0.02 0.02 0.01 0.01 0.02 0.04 0.04 0.04
0.29 0.51 0.53 0.41 0.41 0.56 0.59 0.69 0.56 0.40 0.21 0.09 0.02 0.01 0.01 0.01 0.00 0.00 0.00 0.00 0.00 0.00 0.00 0.00 0.00 0.02 0.05 0.07 0.06 0.07 0.11 0.11 0.14
0.22 0.18 0.24 0.37 0.47 0.52 0.48 0.53 0.64 0.65 0.57 0.30 0.12 0.06 0.03 0.01 0.00 0.00 0.00 0.00 0.00 0.00 0.00 0.00 0.00 0.00 0.01 0.02 0.06 0.12 0.10 0.07 0.07
0.19 0.22 0.28 0.34 0.37 0.39 0.43 0.52 0.55 0.59 0.53 0.45 0.50 0.70 0.68 0.42 0.19 0.06 0.01 0.00 0.00 0.00 0.00 0.00 0.00 0.00 0.00 0.00 0.00 0.05 0.09 0.05 0.03
0.22 0.24 0.27 0.35 0.34 0.33 0.35 0.40 0.44 0.39 0.35 0.33 0.28 0.25 0.39 0.61 0.61 0.37 0.17 0.05 0.00 0.00 0.00 0.00 0.00 0.00 0.00 0.00 0.00 0.00 0.06 0.05 0.03
0.10 0.19 0.18 0.18 0.16 0.17 0.21 0.27 0.26 0.19 0.23 0.30 0.16 0.12 0.11 0.09 0.07 0.11 0.11 0.05 0.02 0.00 0.00 0.00 0.00 0.00 0.00 0.00 0.00 0.00 0.01 0.04 0.04
0.14 0.12 0.18 0.21 0.25 0.24 0.17 0.14 0.13 0.11 0.17 0.21 0.22 0.14 0.06 0.04 0.05 0.06 0.05 0.04 0.05 0.03 0.01 0.00 0.00 0.00 0.00 0.00 0.00 0.00 0.00 0.01 0.08
0.38 0.31 0.25 0.23 0.26 0.22 0.20 0.16 0.15 0.12 0.12 0.13 0.14 0.07 0.04 0.01 0.02 0.02 0.02 0.02 0.02 0.01 0.02 0.01 0.01 0.00 0.00 0.00 0.00 0.01 0.01 0.00 0.07
0.72 0.76 0.48 0.43 0.48 0.37 0.37 0.33 0.27 0.29 0.13 0.22 0.23 0.19 0.11 0.04 0.01 0.01 0.01 0.03 0.02 0.03 0.03 0.02 0.01 0.00 0.00 0.02 0.03 0.03 0.07 0.01 0.02
0.67 0.77 0.93 0.79 0.95 1.01 0.75 0.57 0.52 0.52 0.44 0.37 0.32 0.29 0.32 0.29 0.22 0.14 0.08 0.07 0.04 0.04 0.05 0.06 0.05 0.07 0.10 0.10 0.10 0.12 0.12 0.02 0.01

GFSFLT1_prec_precacc24_126.txt.gz
Total_Precipitation_Accumulation
0.04 0.06 0.06 0.07 0.17 0.27 0.13 0.05 0.03 0.01 0.00 0.00 0.00 0.00 0.00 0.00 0.00 0.00 0.00 0.00 0.00 0.00 0.00 0.00 0.00 0.00 0.00 0.00 0.00 0.00 0.00 0.00 0.00
0.19 0.17 0.10 0.11 0.19 0.43 0.38 0.09 0.03 0.00 0.00 0.00 0.00 0.00 0.00 0.00 0.00 0.00 0.00 0.00 0.00 0.00 0.00 0.00 0.00 0.00 0.00 0.00 0.00 0.00 0.00 0.00 0.00
0.27 0.23 0.14 0.10 0.16 0.41 0.39 0.19 0.06 0.02 0.00 0.00 0.00 0.00 0.00 0.00 0.00 0.00 0.00 0.00 0.00 0.00 0.00 0.00 0.00 0.00 0.00 0.00 0.00 0.00 0.00 0.00 0.00
0.19 0.19 0.21 0.19 0.16 0.29 0.26 0.27 0.13 0.09 0.09 0.02 0.00 0.00 0.00 0.00 0.00 0.00 0.00 0.00 0.00 0.00 0.00 0.00 0.00 0.00 0.00 0.00 0.00 0.00 0.00 0.00 0.00
0.07 0.09 0.19 0.33 0.28 0.25 0.26 0.26 0.23 0.18 0.18 0.13 0.02 0.00 0.00 0.00 0.00 0.00 0.00 0.00 0.00 0.00 0.00 0.00 0.00 0.00 0.00 0.00 0.00 0.00 0.00 0.00 0.00
0.01 0.00 0.02 0.11 0.18 0.25 0.30 0.27 0.13 0.10 0.09 0.03 0.02 0.01 0.00 0.00 0.00 0.00 0.00 0.00 0.00 0.00 0.00 0.00 0.00 0.00 0.00 0.00 0.00 0.00 0.00 0.00 0.00
0.03 0.02 0.00 0.05 0.11 0.16 0.23 0.26 0.09 0.01 0.00 0.00 0.01 0.01 0.01 0.00 0.00 0.00 0.00 0.00 0.00 0.00 0.00 0.00 0.00 0.00 0.00 0.00 0.00 0.00 0.00 0.00 0.00
0.01 0.01 0.02 0.10 0.07 0.10 0.07 0.08 0.01 0.00 0.00 0.00 0.02 0.06 0.05 0.01 0.00 0.00 0.00 0.00 0.00 0.00 0.00 0.00 0.00 0.00 0.00 0.00 0.00 0.00 0.00 0.00 0.00
0.07 0.04 0.07 0.12 0.07 0.11 0.11 0.08 0.02 0.01 0.01 0.01 0.01 0.01 0.02 0.02 0.01 0.00 0.00 0.00 0.00 0.00 0.00 0.00 0.00 0.00 0.00 0.00 0.00 0.00 0.00 0.00 0.00
0.12 0.18 0.22 0.21 0.16 0.12 0.13 0.16 0.18 0.14 0.09 0.06 0.03 0.01 0.01 0.02 0.01 0.00 0.00 0.00 0.00 0.00 0.01 0.01 0.01 0.00 0.00 0.00 0.00 0.00 0.00 0.00 0.00
0.16 0.18 0.24 0.27 0.24 0.23 0.23 0.33 0.35 0.29 0.21 0.12 0.07 0.04 0.04 0.08 0.05 0.04 0.04 0.00 0.00 0.00 0.01 0.03 0.06 0.04 0.02 0.01 0.01 0.01 0.02 0.02 0.03
0.19 0.16 0.21 0.20 0.31 0.57 0.67 0.80 0.70 0.58 0.38 0.21 0.12 0.10 0.08 0.08 0.13 0.14 0.11 0.04 0.01 0.00 0.02 0.05 0.04 0.05 0.07 0.08 0.05 0.06 0.09 0.09 0.12
0.21 0.16 0.13 0.23 0.30 0.40 0.48 0.61 0.77 0.79 0.72 0.47 0.29 0.24 0.21 0.18 0.17 0.16 0.11 0.07 0.03 0.01 0.01 0.05 0.08 0.05 0.03 0.05 0.07 0.13 0.10 0.06 0.06
0.17 0.18 0.23 0.28 0.29 0.31 0.33 0.53 0.64 0.74 0.66 0.55 0.62 0.80 0.79 0.55 0.40 0.25 0.15 0.10 0.07 0.04 0.01 0.02 0.09 0.11 0.11 0.06 0.06 0.12 0.15 0.08 0.07
0.17 0.18 0.22 0.30 0.31 0.31 0.35 0.42 0.51 0.50 0.49 0.54 0.48 0.43 0.53 0.74 0.80 0.70 0.59 0.40 0.26 0.17 0.12 0.12 0.12 0.12 0.12 0.11 0.08 0.09 0.14 0.12 0.07
0.07 0.10 0.11 0.14 0.15 0.16 0.21 0.29 0.31 0.25 0.34 0.46 0.25 0.19 0.13 0.11 0.11 0.19 0.29 0.31 0.27 0.24 0.22 0.23 0.23 0.24 0.23 0.19 0.14 0.08 0.07 0.10 0.09
0.11 0.05 0.07 0.10 0.18 0.20 0.16 0.18 0.18 0.19 0.30 0.36 0.33 0.18 0.08 0.05 0.06 0.09 0.10 0.12 0.15 0.16 0.16 0.19 0.19 0.19 0.23 0.21 0.17 0.13 0.10 0.09 0.16
0.33 0.26 0.19 0.16 0.18 0.18 0.18 0.18 0.20 0.18 0.21 0.27 0.32 0.20 0.09 0.03 0.04 0.04 0.04 0.04 0.05 0.04 0.07 0.09 0.12 0.15 0.17 0.16 0.18 0.17 0.13 0.08 0.12
0.56 0.67 0.44 0.38 0.43 0.34 0.35 0.32 0.31 0.38 0.23 0.34 0.34 0.34 0.20 0.08 0.03 0.01 0.02 0.05 0.04 0.05 0.09 0.07 0.06 0.07 0.10 0.19 0.28 0.29 0.31 0.21 0.13
0.41 0.47 0.72 0.66 0.86 0.94 0.69 0.53 0.50 0.55 0.50 0.47 0.46 0.46 0.51 0.45 0.31 0.19 0.08 0.07 0.05 0.07 0.10 0.12 0.09 0.09 0.14 0.16 0.16 0.19 0.18 0.08 0.04

GFSFLT1_prec_precacc24_129.txt.gz
Total_Precipitation_Accumulation
0.11 0.11 0.03 0.03 0.12 0.24 0.13 0.07 0.04 0.03 0.00 0.00 0.00 0.00 0.00 0.00 0.00 0.00 0.00 0.00 0.00 0.00 0.00 0.00 0.00 0.00 0.00 0.00 0.00 0.00 0.00 0.00 0.00
0.25 0.21 0.11 0.10 0.16 0.42 0.38 0.09 0.05 0.04 0.02 0.00 0.00 0.00 0.00 0.00 0.00 0.00 0.00 0.00 0.00 0.00 0.00 0.00 0.00 0.00 0.00 0.00 0.00 0.00 0.00 0.00 0.00
0.26 0.22 0.15 0.12 0.16 0.42 0.40 0.20 0.06 0.06 0.08 0.04 0.00 0.00 0.00 0.00 0.00 0.00 0.00 0.00 0.00 0.00 0.00 0.00 0.00 0.00 0.00 0.00 0.00 0.00 0.00 0.00 0.00
0.15 0.16 0.15 0.18 0.19 0.33 0.30 0.31 0.16 0.10 0.15 0.15 0.04 0.01 0.00 0.00 0.00 0.00 0.00 0.00 0.00 0.00 0.00 0.00 0.00 0.00 0.00 0.00 0.00 0.00 0.00 0.00 0.00
0.05 0.07 0.09 0.22 0.24 0.26 0.28 0.28 0.26 0.21 0.20 0.21 0.18 0.03 0.00 0.00 0.00 0.00 0.00 0.00 0.00 0.00 0.00 0.00 0.00 0.00 0.00 0.00 0.00 0.00 0.00 0.00 0.00
0.01 0.00 0.00 0.08 0.15 0.26 0.31 0.29 0.15 0.12 0.10 0.05 0.04 0.03 0.00 0.00 0.00 0.00 0.00 0.00 0.00 0.00 0.00 0.00 0.00 0.00 0.00 0.00 0.00 0.00 0.00 0.00 0.00
0.03 0.02 0.00 0.04 0.09 0.16 0.24 0.27 0.10 0.01 0.00 0.00 0.01 0.02 0.04 0.02 0.00 0.00 0.00 0.00 0.00 0.00 0.00 0.00 0.00 0.00 0.00 0.00 0.00 0.00 0.00 0.00 0.00
0.01 0.01 0.02 0.10 0.07 0.10 0.07 0.08 0.02 0.00 0.00 0.00 0.02 0.06 0.06 0.03 0.01 0.00 0.00 0.00 0.00 0.00 0.00 0.00 0.00 0.00 0.00 0.00 0.00 0.00 0.00 0.00 0.00
0.02 0.01 0.06 0.12 0.07 0.11 0.11 0.08 0.02 0.01 0.02 0.02 0.02 0.03 0.03 0.02 0.01 0.00 0.00 0.00 0.00 0.00 0.00 0.01 0.01 0.00 0.00 0.00 0.00 0.00 0.00 0.00 0.00
0.05 0.09 0.13 0.17 0.14 0.11 0.13 0.16 0.18 0.14 0.09 0.08 0.07 0.04 0.03 0.02 0.01 0.00 0.01 0.01 0.00 0.00 0.01 0.02 0.03 0.01 0.00 0.00 0.00 0.00 0.00 0.00 0.00
0.14 0.14 0.15 0.14 0.16 0.19 0.22 0.33 0.35 0.30 0.21 0.13 0.08 0.06 0.06 0.11 0.07 0.05 0.07 0.05 0.02 0.01 0.02 0.03 0.09 0.09 0.04 0.02 0.01 0.01 0.01 0.01 0.02
0.18 0.15 0.20 0.17 0.27 0.52 0.62 0.76 0.69 0.58 0.39 0.21 0.13 0.13 0.11 0.10 0.16 0.17 0.13 0.09 0.07 0.04 0.03 0.06 0.05 0.08 0.12 0.13 0.08 0.05 0.07 0.08 0.09
0.21 0.16 0.13 0.22 0.30 0.39 0.42 0.48 0.65 0.77 0.72 0.47 0.31 0.28 0.26 0.23 0.20 0.20 0.13 0.10 0.07 0.08 0.04 0.07 0.09 0.06 0.05 0.09 0.11 0.16 0.12 0.07 0.06
0.17 0.18 0.23 0.26 0.27 0.30 0.31 0.41 0.48 0.62 0.62 0.55 0.63 0.81 0.81 0.57 0.42 0.30 0.19 0.14 0.12 0.10 0.09 0.06 0.11 0.11 0.12 0.08 0.13 0.19 0.21 0.14 0.11
0.17 0.18 0.22 0.28 0.27 0.25 0.29 0.34 0.40 0.42 0.45 0.52 0.49 0.47 0.60 0.80 0.83 0.72 0.64 0.45 0.31 0.24 0.22 0.22 0.19 0.16 0.14 0.14 0.13 0.16 0.23 0.21 0.16
0.06 0.09 0.10 0.11 0.14 0.15 0.20 0.26 0.28 0.23 0.32 0.45 0.25 0.21 0.19 0.16 0.12 0.21 0.32 0.35 0.30 0.27 0.30 0.31 0.31 0.30 0.26 0.23 0.22 0.20 0.20 0.21 0.19
0.11 0.04 0.07 0.09 0.15 0.19 0.16 0.18 0.19 0.19 0.30 0.37 0.36 0.20 0.12 0.08 0.08 0.11 0.12 0.17 0.29 0.27 0.22 0.23 0.22 0.21 0.23 0.23 0.22 0.22 0.23 0.23 0.30
0.33 0.26 0.18 0.14 0.15 0.16 0.18 0.18 0.21 0.19 0.22 0.33 0.42 0.29 0.15 0.09 0.07 0.04 0.05 0.08 0.13 0.16 0.13 0.11 0.13 0.15 0.17 0.17 0.19 0.20 0.19 0.17 0.22
0.56 0.67 0.44 0.38 0.41 0.29 0.31 0.30 0.29 0.38 0.24 0.38 0.47 0.52 0.36 0.18 0.06 0.02 0.03 0.06 0.06 0.08 0.11 0.08 0.07 0.07 0.10 0.20 0.29 0.32 0.37 0.29 0.25
0.41 0.47 0.72 0.66 0.86 0.93 0.66 0.48 0.45 0.51 0.50 0.54 0.58 0.66 0.71 0.61 0.44 0.24 0.13 0.10 0.08 0.11 0.15 0.15 0.11 0.08 0.12 0.15 0.18 0.22 0.23 0.17 0.17

GFSFLT1_prec_precacc24_132.txt.gz
Total_Precipitation_Accumulation
0.12 0.13 0.05 0.02 0.05 0.15 0.13 0.07 0.05 0.04 0.02 0.00 0.00 0.00 0.00 0.00 0.00 0.00 0.00 0.00 0.00 0.00 0.00 0.00 0.00 0.00 0.00 0.00 0.00 0.00 0.00 0.00 0.00
0.19 0.17 0.09 0.07 0.11 0.32 0.38 0.09 0.05 0.04 0.02 0.00 0.00 0.00 0.00 0.00 0.00 0.00 0.00 0.00 0.00 0.00 0.00 0.00 0.00 0.00 0.00 0.00 0.00 0.00 0.00 0.00 0.00
0.19 0.19 0.13 0.07 0.13 0.35 0.41 0.21 0.06 0.08 0.10 0.08 0.02 0.00 0.00 0.00 0.00 0.00 0.00 0.00 0.00 0.00 0.00 0.00 0.00 0.00 0.00 0.00 0.00 0.00 0.00 0.00 0.00
0.12 0.15 0.12 0.11 0.14 0.25 0.29 0.31 0.16 0.11 0.18 0.21 0.08 0.02 0.00 0.00 0.00 0.00 0.00 0.00 0.00 0.00 0.00 0.00 0.00 0.00 0.00 0.00 0.00 0.00 0.00 0.00 0.00
0.03 0.06 0.06 0.11 0.15 0.18 0.25 0.29 0.28 0.22 0.21 0.23 0.23 0.04 0.00 0.00 0.00 0.00 0.00 0.00 0.00 0.00 0.00 0.00 0.00 0.00 0.00 0.00 0.00 0.00 0.00 0.00 0.00
0.00 0.00 0.00 0.04 0.09 0.19 0.27 0.29 0.16 0.13 0.10 0.05 0.05 0.08 0.02 0.02 0.01 0.00 0.00 0.00 0.00 0.00 0.00 0.00 0.00 0.00 0.00 0.00 0.00 0.00 0.00 0.00 0.00
0.02 0.00 0.00 0.02 0.05 0.10 0.20 0.27 0.10 0.01 0.00 0.00 0.02 0.03 0.05 0.05 0.02 0.01 0.00 0.00 0.00 0.00 0.00 0.00 0.00 0.00 0.00 0.00 0.00 0.00 0.00 0.00 0.00
0.01 0.00 0.01 0.04 0.04 0.08 0.06 0.08 0.02 0.00 0.01 0.01 0.02 0.06 0.07 0.05 0.03 0.01 0.00 0.00 0.00 0.00 0.00 0.01 0.01 0.00 0.00 0.00 0.00 0.00 0.00 0.00 0.00
0.01 0.00 0.02 0.06 0.03 0.06 0.09 0.08 0.02 0.01 0.02 0.03 0.04 0.05 0.04 0.04 0.03 0.01 0.00 0.00 0.00 0.00 0.00 0.01 0.03 0.02 0.00 0.00 0.00 0.00 0.00 0.00 0.00
0.04 0.03 0.06 0.08 0.08 0.06 0.09 0.14 0.17 0.14 0.09 0.08 0.07 0.05 0.05 0.04 0.02 0.01 0.01 0.01 0.00 0.00 0.01 0.02 0.03 0.04 0.03 0.01 0.00 0.00 0.00 0.00 0.00
0.14 0.13 0.12 0.10 0.10 0.15 0.20 0.28 0.33 0.29 0.21 0.13 0.08 0.06 0.08 0.13 0.09 0.07 0.09 0.06 0.03 0.01 0.02 0.03 0.08 0.09 0.06 0.04 0.03 0.01 0.01 0.00 0.00
0.17 0.15 0.20 0.17 0.24 0.44 0.58 0.69 0.60 0.55 0.39 0.21 0.13 0.13 0.11 0.10 0.17 0.18 0.14 0.11 0.09 0.06 0.03 0.06 0.05 0.08 0.12 0.16 0.12 0.07 0.05 0.05 0.07
0.18 0.15 0.13 0.22 0.30 0.38 0.41 0.46 0.54 0.60 0.64 0.46 0.31 0.28 0.26 0.23 0.21 0.20 0.14 0.10 0.08 0.09 0.06 0.08 0.09 0.06 0.05 0.09 0.14 0.18 0.14 0.10 0.07
0.17 0.18 0.23 0.26 0.26 0.27 0.27 0.37 0.44 0.50 0.48 0.48 0.62 0.81 0.81 0.58 0.43 0.31 0.20 0.15 0.14 0.10 0.11 0.12 0.14 0.12 0.12 0.09 0.16 0.23 0.27 0.20 0.16
0.17 0.18 0.22 0.27 0.26 0.24 0.25 0.29 0.37 0.38 0.40 0.46 0.47 0.47 0.60 0.81 0.85 0.75 0.66 0.46 0.32 0.26 0.24 0.25 0.24 0.22 0.18 0.15 0.14 0.20 0.31 0.34 0.28
0.06 0.09 0.10 0.11 0.13 0.14 0.17 0.21 0.23 0.20 0.29 0.41 0.22 0.20 0.19 0.16 0.13 0.24 0.35 0.38 0.33 0.31 0.34 0.39 0.41 0.42 0.40 0.35 0.31 0.29 0.29 0.30 0.26
0.11 0.04 0.06 0.08 0.14 0.18 0.15 0.16 0.17 0.18 0.30 0.38 0.37 0.20 0.12 0.09 0.09 0.14 0.16 0.20 0.36 0.34 0.30 0.32 0.34 0.34 0.37 0.37 0.33 0.31 0.33 0.34 0.40
0.33 0.26 0.18 0.12 0.13 0.14 0.15 0.16 0.19 0.19 0.22 0.34 0.46 0.31 0.18 0.16 0.18 0.15 0.18 0.19 0.24 0.27 0.40 0.37 0.30 0.29 0.30 0.26 0.26 0.23 0.22 0.23 0.30
0.56 0.66 0.44 0.37 0.38 0.26 0.26 0.26 0.27 0.37 0.24 0.38 0.49 0.57 0.47 0.40 0.34 0.27 0.29 0.20 0.20 0.33 0.36 0.33 0.37 0.39 0.38 0.37 0.33 0.32 0.37 0.31 0.30
0.41 0.47 0.71 0.65 0.83 0.92 0.63 0.45 0.43 0.50 0.49 0.53 0.59 0.67 0.76 0.96 0.94 0.65 0.32 0.26 0.28 0.30 0.43 0.47 0.45 0.51 0.50 0.58 0.37 0.19 0.20 0.19 0.22

GFSFLT1_prec_precacc24_135.txt.gz
Total_Precipitation_Accumulation
0.11 0.13 0.05 0.01 0.01 0.06 0.13 0.07 0.05 0.05 0.02 0.00 0.00 0.00 0.00 0.00 0.00 0.00 0.00 0.00 0.00 0.00 0.00 0.00 0.00 0.00 0.00 0.00 0.00 0.00 0.00 0.00 0.00
0.19 0.18 0.09 0.04 0.03 0.19 0.35 0.12 0.08 0.05 0.05 0.01 0.00 0.00 0.00 0.00 0.00 0.00 0.00 0.00 0.00 0.00 0.00 0.00 0.00 0.00 0.00 0.00 0.00 0.00 0.00 0.00 0.00
0.14 0.18 0.14 0.08 0.06 0.18 0.27 0.23 0.09 0.09 0.14 0.12 0.07 0.03 0.01 0.00 0.00 0.00 0.00 0.00 0.00 0.00 0.00 0.00 0.00 0.00 0.00 0.00 0.00 0.00 0.00 0.00 0.00
0.07 0.11 0.09 0.09 0.12 0.17 0.15 0.27 0.16 0.11 0.19 0.24 0.10 0.02 0.00 0.00 0.00 0.00 0.00 0.00 0.00 0.00 0.00 0.00 0.00 0.00 0.00 0.00 0.00 0.00 0.00 0.00 0.00
0.01 0.02 0.04 0.07 0.08 0.12 0.13 0.23 0.28 0.23 0.22 0.23 0.24 0.04 0.00 0.01 0.00 0.00 0.00 0.00 0.00 0.00 0.00 0.00 0.00 0.00 0.00 0.00 0.00 0.00 0.00 0.00 0.00
0.00 0.00 0.00 0.01 0.04 0.08 0.14 0.20 0.16 0.14 0.10 0.05 0.05 0.08 0.02 0.03 0.02 0.00 0.00 0.00 0.00 0.00 0.00 0.00 0.00 0.00 0.00 0.00 0.00 0.00 0.00 0.00 0.00
0.02 0.00 0.00 0.00 0.01 0.05 0.10 0.16 0.08 0.01 0.00 0.00 0.03 0.03 0.05 0.05 0.03 0.01 0.00 0.00 0.00 0.00 0.00 0.00 0.00 0.00 0.00 0.00 0.00 0.00 0.00 0.00 0.00
0.01 0.00 0.00 0.00 0.00 0.02 0.03 0.05 0.02 0.00 0.01 0.01 0.03 0.08 0.10 0.05 0.04 0.02 0.00 0.00 0.00 0.00 0.00 0.01 0.02 0.01 0.01 0.00 0.00 0.00 0.00 0.00 0.00
0.01 0.00 0.00 0.01 0.01 0.01 0.02 0.02 0.01 0.01 0.02 0.03 0.04 0.06 0.06 0.05 0.04 0.03 0.02 0.00 0.00 0.00 0.00 0.01 0.03 0.02 0.01 0.01 0.00 0.00 0.00 0.00 0.00
0.02 0.02 0.02 0.04 0.03 0.02 0.03 0.07 0.13 0.13 0.09 0.08 0.07 0.05 0.05 0.05 0.04 0.02 0.03 0.02 0.01 0.00 0.01 0.01 0.03 0.04 0.03 0.02 0.01 0.00 0.00 0.00 0.00
0.06 0.05 0.05 0.03 0.05 0.09 0.15 0.24 0.27 0.26 0.20 0.12 0.08 0.06 0.08 0.13 0.09 0.08 0.11 0.07 0.04 0.02 0.03 0.03 0.07 0.08 0.05 0.04 0.04 0.02 0.01 0.00 0.00
0.13 0.12 0.15 0.13 0.16 0.33 0.44 0.52 0.47 0.38 0.29 0.18 0.13 0.13 0.11 0.10 0.17 0.19 0.16 0.13 0.10 0.07 0.06 0.10 0.07 0.07 0.09 0.12 0.12 0.08 0.04 0.03 0.02
0.10 0.09 0.08 0.18 0.25 0.33 0.38 0.44 0.49 0.50 0.47 0.38 0.30 0.28 0.26 0.23 0.21 0.20 0.15 0.12 0.10 0.11 0.09 0.13 0.12 0.07 0.05 0.09 0.15 0.18 0.14 0.09 0.07
0.07 0.08 0.12 0.19 0.22 0.24 0.24 0.32 0.39 0.47 0.46 0.46 0.61 0.81 0.81 0.58 0.43 0.31 0.20 0.16 0.16 0.12 0.16 0.18 0.22 0.22 0.19 0.10 0.17 0.26 0.28 0.25 0.21
0.13 0.08 0.08 0.16 0.22 0.22 0.23 0.25 0.32 0.34 0.37 0.43 0.43 0.45 0.60 0.81 0.85 0.75 0.66 0.47 0.33 0.28 0.27 0.29 0.31 0.31 0.23 0.18 0.16 0.25 0.34 0.40 0.36
0.05 0.09 0.09 0.09 0.13 0.14 0.16 0.19 0.19 0.16 0.25 0.35 0.19 0.18 0.18 0.16 0.13 0.24 0.35 0.38 0.34 0.33 0.36 0.41 0.45 0.49 0.54 0.42 0.32 0.31 0.33 0.35 0.35
0.07 0.03 0.04 0.07 0.14 0.18 0.15 0.15 0.16 0.16 0.27 0.36 0.35 0.19 0.11 0.09 0.09 0.14 0.17 0.21 0.40 0.40 0.39 0.41 0.41 0.41 0.42 0.50 0.46 0.35 0.38 0.42 0.47
0.32 0.26 0.17 0.09 0.10 0.14 0.15 0.15 0.16 0.15 0.19 0.31 0.46 0.32 0.19 0.17 0.18 0.16 0.20 0.27 0.36 0.44 0.62 0.67 0.51 0.43 0.39 0.41 0.45 0.42 0.37 0.43 0.38
0.54 0.65 0.43 0.35 0.34 0.24 0.25 0.24 0.23 0.31 0.20 0.35 0.47 0.57 0.48 0.43 0.35 0.28 0.32 0.47 1.08 1.35 1.02 0.71 0.81 0.99 0.75 0.55 0.70 0.79 0.78 0.64 0.47
0.36 0.42 0.65 0.59 0.78 0.87 0.58 0.41 0.38 0.44 0.44 0.51 0.58 0.67 0.75 0.96 0.94 0.67 0.49 0.46 0.90 0.77 0.68 0.61 0.53 0.85 1.15 1.02 0.72 0.43 0.39 0.60 0.73

GFSFLT1_prec_precacc24_138.txt.gz
Total_Precipitation_Accumulation
0.13 0.15 0.06 0.02 0.00 0.01 0.07 0.07 0.05 0.05 0.03 0.00 0.00 0.00 0.00 0.00 0.00 0.00 0.00 0.00 0.00 0.00 0.00 0.00 0.00 0.00 0.00 0.00 0.00 0.00 0.00 0.00 0.00
0.16 0.18 0.10 0.04 0.02 0.06 0.20 0.13 0.08 0.05 0.05 0.01 0.01 0.01 0.01 0.00 0.00 0.00 0.00 0.00 0.00 0.00 0.00 0.00 0.00 0.00 0.00 0.00 0.00 0.00 0.00 0.00 0.00
0.09 0.12 0.12 0.08 0.03 0.06 0.13 0.19 0.09 0.09 0.15 0.12 0.09 0.05 0.01 0.00 0.00 0.00 0.00 0.00 0.00 0.00 0.00 0.00 0.00 0.00 0.00 0.00 0.00 0.00 0.00 0.00 0.00
0.04 0.08 0.06 0.06 0.09 0.11 0.10 0.16 0.15 0.11 0.19 0.26 0.12 0.03 0.00 0.00 0.00 0.00 0.00 0.00 0.00 0.00 0.00 0.00 0.00 0.00 0.00 0.00 0.00 0.00 0.00 0.00 0.00
0.01 0.01 0.02 0.05 0.06 0.09 0.08 0.13 0.21 0.24 0.23 0.24 0.24 0.04 0.00 0.01 0.00 0.00 0.00 0.00 0.00 0.00 0.00 0.00 0.00 0.00 0.00 0.00 0.00 0.00 0.00 0.00 0.00
0.00 0.00 0.00 0.01 0.02 0.04 0.07 0.11 0.12 0.14 0.10 0.05 0.06 0.08 0.02 0.03 0.02 0.00 0.00 0.00 0.00 0.00 0.00 0.00 0.00 0.00 0.00 0.00 0.00 0.00 0.00 0.00 0.00
0.02 0.00 0.00 0.00 0.00 0.01 0.03 0.07 0.05 0.01 0.00 0.00 0.03 0.04 0.07 0.07 0.03 0.01 0.01 0.01 0.01 0.00 0.00 0.01 0.00 0.00 0.00 0.00 0.00 0.00 0.00 0.00 0.00
0.01 0.00 0.00 0.00 0.00 0.00 0.00 0.02 0.01 0.00 0.01 0.02 0.03 0.09 0.11 0.07 0.04 0.04 0.04 0.04 0.04 0.02 0.01 0.01 0.02 0.01 0.01 0.00 0.00 0.00 0.00 0.00 0.00
0.01 0.00 0.00 0.00 0.00 0.00 0.00 0.00 0.00 0.00 0.02 0.03 0.04 0.06 0.07 0.05 0.04 0.04 0.03 0.03 0.03 0.03 0.03 0.03 0.04 0.03 0.01 0.01 0.01 0.00 0.00 0.00 0.00
0.02 0.02 0.01 0.01 0.01 0.00 0.01 0.05 0.06 0.08 0.09 0.08 0.07 0.05 0.05 0.05 0.04 0.03 0.03 0.03 0.05 0.04 0.04 0.04 0.06 0.05 0.03 0.02 0.01 0.00 0.00 0.00 0.00
0.06 0.04 0.03 0.02 0.02 0.04 0.11 0.19 0.19 0.16 0.17 0.12 0.08 0.06 0.08 0.13 0.09 0.08 0.11 0.08 0.06 0.06 0.07 0.08 0.11 0.11 0.07 0.06 0.05 0.03 0.01 0.01 0.00
0.13 0.11 0.11 0.07 0.09 0.21 0.31 0.39 0.37 0.28 0.25 0.16 0.12 0.13 0.11 0.10 0.17 0.19 0.16 0.13 0.11 0.08 0.09 0.14 0.11 0.11 0.12 0.16 0.15 0.11 0.06 0.02 0.01
0.10 0.08 0.05 0.09 0.11 0.17 0.23 0.29 0.35 0.36 0.37 0.32 0.27 0.27 0.26 0.23 0.21 0.20 0.15 0.12 0.11 0.12 0.10 0.17 0.18 0.12 0.10 0.16 0.20 0.22 0.15 0.09 0.05
0.06 0.06 0.06 0.10 0.12 0.16 0.16 0.20 0.28 0.34 0.36 0.39 0.57 0.80 0.81 0.58 0.43 0.31 0.20 0.16 0.16 0.13 0.16 0.19 0.27 0.31 0.27 0.17 0.26 0.34 0.35 0.29 0.22
0.11 0.07 0.07 0.14 0.15 0.15 0.14 0.15 0.19 0.23 0.30 0.35 0.37 0.42 0.59 0.81 0.85 0.75 0.66 0.47 0.33 0.28 0.27 0.30 0.31 0.33 0.29 0.28 0.25 0.36 0.44 0.48 0.44
0.04 0.09 0.08 0.08 0.10 0.12 0.15 0.16 0.16 0.14 0.22 0.27 0.16 0.16 0.16 0.15 0.13 0.24 0.35 0.38 0.34 0.33 0.37 0.43 0.47 0.52 0.61 0.48 0.39 0.41 0.47 0.48 0.47
0.06 0.03 0.04 0.07 0.13 0.16 0.15 0.14 0.15 0.16 0.24 0.32 0.31 0.16 0.10 0.08 0.09 0.14 0.17 0.21 0.40 0.40 0.40 0.46 0.47 0.47 0.51 0.67 0.63 0.44 0.53 0.63 0.63
0.27 0.23 0.16 0.09 0.09 0.12 0.13 0.14 0.14 0.14 0.16 0.29 0.43 0.31 0.19 0.17 0.18 0.16 0.20 0.27 0.36 0.44 0.62 0.74 0.58 0.51 0.55 0.67 0.70 0.62 0.49 0.59 0.66
0.38 0.51 0.40 0.32 0.30 0.18 0.17 0.20 0.19 0.26 0.18 0.28 0.43 0.54 0.45 0.43 0.35 0.28 0.32 0.47 1.08 1.36 1.19 1.06 1.25 1.28 1.00 0.96 1.06 1.19 1.11 0.88 0.83
0.24 0.34 0.58 0.54 0.72 0.76 0.49 0.31 0.27 0.28 0.32 0.38 0.46 0.60 0.69 0.93 0.93 0.67 0.49 0.46 0.90 0.78 0.73 0.70 0.67 0.97 1.33 1.57 1.31 0.85 0.75 0.95 1.03

GFSFLT1_prec_precacc24_141.txt.gz
Total_Precipitation_Accumulation
0.13 0.17 0.07 0.02 0.01 0.00 0.06 0.07 0.06 0.06 0.03 0.00 0.00 0.01 0.01 0.00 0.00 0.00 0.00 0.01 0.02 0.02 0.00 0.00 0.00 0.00 0.00 0.00 0.00 0.00 0.00 0.00 0.00
0.13 0.16 0.10 0.04 0.02 0.01 0.08 0.11 0.09 0.07 0.06 0.01 0.01 0.03 0.01 0.00 0.00 0.00 0.00 0.00 0.00 0.00 0.00 0.00 0.00 0.00 0.00 0.00 0.00 0.00 0.00 0.00 0.00
0.08 0.11 0.11 0.07 0.03 0.02 0.04 0.13 0.10 0.10 0.15 0.13 0.09 0.05 0.01 0.00 0.00 0.00 0.00 0.00 0.00 0.00 0.00 0.00 0.00 0.00 0.00 0.00 0.00 0.00 0.00 0.00 0.00
0.04 0.08 0.06 0.06 0.08 0.09 0.06 0.09 0.12 0.11 0.20 0.27 0.12 0.03 0.00 0.00 0.00 0.00 0.00 0.00 0.00 0.00 0.00 0.00 0.00 0.00 0.00 0.00 0.00 0.00 0.00 0.00 0.00
0.01 0.01 0.02 0.05 0.06 0.08 0.08 0.09 0.15 0.23 0.24 0.25 0.25 0.05 0.00 0.01 0.00 0.00 0.00 0.00 0.03 0.02 0.01 0.00 0.00 0.00 0.00 0.00 0.00 0.00 0.00 0.00 0.00
0.00 0.00 0.00 0.01 0.02 0.04 0.06 0.08 0.10 0.14 0.10 0.05 0.06 0.09 0.02 0.03 0.02 0.00 0.00 0.02 0.04 0.02 0.01 0.01 0.00 0.00 0.00 0.00 0.00 0.00 0.00 0.00 0.00
0.02 0.00 0.00 0.00 0.00 0.01 0.03 0.05 0.04 0.01 0.00 0.00 0.03 0.05 0.08 0.08 0.04 0.02 0.01 0.04 0.05 0.04 0.04 0.03 0.03 0.02 0.01 0.00 0.00 0.00 0.00 0.00 0.00
0.01 0.00 0.00 0.00 0.00 0.00 0.00 0.01 0.01 0.00 0.01 0.02 0.03 0.09 0.11 0.07 0.06 0.06 0.05 0.07 0.08 0.08 0.08 0.07 0.06 0.04 0.04 0.01 0.01 0.00 0.00 0.00 0.00
0.01 0.00 0.00 0.00 0.00 0.00 0.00 0.00 0.00 0.00 0.02 0.03 0.04 0.06 0.07 0.05 0.04 0.04 0.04 0.04 0.06 0.07 0.07 0.08 0.10 0.09 0.08 0.04 0.02 0.01 0.01 0.00 0.00
0.02 0.02 0.01 0.00 0.00 0.00 0.01 0.05 0.06 0.08 0.09 0.08 0.07 0.05 0.05 0.05 0.04 0.03 0.03 0.03 0.05 0.06 0.07 0.07 0.09 0.10 0.09 0.07 0.06 0.04 0.02 0.01 0.00
0.03 0.03 0.03 0.02 0.01 0.03 0.07 0.16 0.17 0.13 0.13 0.11 0.08 0.06 0.08 0.13 0.09 0.08 0.11 0.08 0.06 0.07 0.08 0.09 0.14 0.16 0.15 0.15 0.13 0.10 0.06 0.04 0.01
0.07 0.06 0.07 0.04 0.05 0.10 0.18 0.25 0.30 0.23 0.20 0.14 0.12 0.13 0.11 0.10 0.17 0.19 0.16 0.13 0.11 0.08 0.09 0.15 0.12 0.13 0.16 0.23 0.24 0.20 0.14 0.09 0.05
0.06 0.06 0.05 0.07 0.09 0.11 0.15 0.17 0.19 0.19 0.24 0.25 0.24 0.26 0.26 0.23 0.20 0.20 0.15 0.12 0.11 0.12 0.10 0.17 0.18 0.13 0.12 0.20 0.27 0.31 0.25 0.18 0.12
0.03 0.05 0.05 0.08 0.10 0.11 0.14 0.17 0.19 0.23 0.23 0.20 0.27 0.44 0.57 0.53 0.42 0.31 0.20 0.16 0.16 0.13 0.16 0.19 0.27 0.31 0.28 0.18 0.29 0.41 0.45 0.42 0.35
0.02 0.03 0.03 0.08 0.09 0.11 0.11 0.13 0.15 0.16 0.20 0.24 0.24 0.28 0.46 0.76 0.84 0.75 0.66 0.47 0.33 0.28 0.27 0.30 0.31 0.33 0.30 0.28 0.25 0.38 0.50 0.57 0.56
0.01 0.02 0.03 0.05 0.06 0.07 0.12 0.16 0.15 0.11 0.15 0.20 0.11 0.11 0.11 0.12 0.12 0.24 0.35 0.38 0.34 0.33 0.37 0.43 0.47 0.52 0.61 0.49 0.40 0.42 0.49 0.53 0.57
0.02 0.01 0.02 0.05 0.09 0.12 0.13 0.14 0.15 0.14 0.17 0.22 0.18 0.08 0.07 0.07 0.09 0.14 0.17 0.21 0.40 0.40 0.40 0.46 0.47 0.47 0.51 0.68 0.64 0.45 0.55 0.68 0.73
0.01 0.04 0.06 0.04 0.06 0.09 0.10 0.11 0.12 0.12 0.14 0.24 0.35 0.28 0.17 0.16 0.18 0.16 0.20 0.27 0.36 0.44 0.62 0.74 0.58 0.51 0.56 0.67 0.71 0.63 0.51 0.62 0.72
0.00 0.01 0.07 0.10 0.11 0.09 0.09 0.11 0.13 0.16 0.14 0.21 0.32 0.44 0.42 0.42 0.34 0.28 0.32 0.47 1.08 1.36 1.19 1.06 1.25 1.28 1.03 0.99 1.09 1.21 1.12 0.92 0.97
0.01 0.01 0.05 0.18 0.45 0.48 0.32 0.23 0.23 0.25 0.28 0.31 0.33 0.43 0.49 0.77 0.85 0.64 0.48 0.46 0.90 0.78 0.73 0.70 0.67 0.97 1.35 1.58 1.32 0.86 0.76 1.06 1.18

GFSFLT1_prec_precacc24_144.txt.gz
Total_Precipitation_Accumulation
0.13 0.17 0.08 0.03 0.01 0.00 0.03 0.07 0.07 0.09 0.04 0.00 0.00 0.01 0.03 0.00 0.00 0.00 0.00 0.01 0.02 0.06 0.02 0.00 0.00 0.00 0.00 0.00 0.00 0.00 0.00 0.00 0.00
0.13 0.15 0.10 0.04 0.02 0.01 0.04 0.11 0.12 0.10 0.07 0.01 0.01 0.04 0.02 0.00 0.00 0.00 0.00 0.00 0.00 0.00 0.01 0.00 0.00 0.00 0.00 0.00 0.00 0.00 0.00 0.00 0.00
0.08 0.11 0.11 0.07 0.03 0.02 0.02 0.10 0.09 0.11 0.16 0.14 0.12 0.07 0.02 0.00 0.00 0.00 0.00 0.00 0.00 0.00 0.00 0.00 0.00 0.00 0.00 0.00 0.00 0.00 0.00 0.00 0.00
0.04 0.08 0.06 0.06 0.08 0.08 0.06 0.07 0.10 0.11 0.20 0.30 0.14 0.04 0.01 0.00 0.00 0.00 0.00 0.00 0.01 0.02 0.02 0.02 0.00 0.00 0.00 0.00 0.00 0.00 0.00 0.00 0.00
0.01 0.01 0.02 0.05 0.05 0.06 0.07 0.05 0.09 0.21 0.24 0.25 0.25 0.05 0.01 0.01 0.00 0.00 0.00 0.00 0.07 0.14 0.06 0.03 0.02 0.01 0.01 0.00 0.00 0.00 0.00 0.00 0.00
0.00 0.00 0.00 0.01 0.02 0.04 0.04 0.05 0.08 0.13 0.10 0.05 0.06 0.09 0.02 0.04 0.03 0.01 0.00 0.03 0.10 0.08 0.04 0.04 0.04 0.04 0.02 0.01 0.00 0.00 0.00 0.00 0.00
0.02 0.00 0.00 0.00 0.00 0.01 0.02 0.03 0.04 0.01 0.00 0.00 0.03 0.05 0.08 0.08 0.04 0.02 0.02 0.07 0.10 0.10 0.10 0.09 0.07 0.05 0.04 0.04 0.03 0.01 0.00 0.00 0.00
0.01 0.00 0.00 0.00 0.00 0.00 0.00 0.00 0.01 0.00 0.01 0.01 0.03 0.09 0.11 0.07 0.06 0.06 0.06 0.08 0.09 0.10 0.11 0.11 0.12 0.10 0.08 0.06 0.05 0.03 0.02 0.01 0.00
0.01 0.00 0.00 0.00 0.00 0.00 0.00 0.00 0.00 0.00 0.02 0.03 0.04 0.06 0.07 0.05 0.04 0.04 0.04 0.04 0.06 0.07 0.08 0.10 0.13 0.13 0.12 0.10 0.09 0.06 0.05 0.03 0.01
0.02 0.02 0.01 0.00 0.00 0.00 0.01 0.05 0.06 0.08 0.09 0.08 0.07 0.05 0.05 0.05 0.04 0.03 0.03 0.03 0.05 0.06 0.07 0.07 0.10 0.12 0.13 0.13 0.13 0.11 0.09 0.07 0.04
0.00 0.02 0.03 0.02 0.01 0.02 0.03 0.09 0.14 0.13 0.12 0.09 0.07 0.05 0.07 0.12 0.09 0.08 0.11 0.08 0.06 0.07 0.08 0.09 0.14 0.16 0.16 0.18 0.18 0.16 0.14 0.12 0.09
0.00 0.00 0.00 0.02 0.02 0.05 0.08 0.12 0.14 0.18 0.18 0.12 0.11 0.12 0.10 0.09 0.17 0.19 0.16 0.13 0.11 0.08 0.09 0.15 0.12 0.13 0.16 0.23 0.26 0.23 0.19 0.16 0.14
0.00 0.00 0.00 0.01 0.03 0.05 0.07 0.09 0.13 0.14 0.16 0.18 0.18 0.21 0.23 0.22 0.20 0.20 0.15 0.12 0.11 0.12 0.10 0.17 0.18 0.13 0.12 0.20 0.27 0.31 0.27 0.22 0.19
0.00 0.00 0.00 0.00 0.02 0.04 0.06 0.08 0.10 0.15 0.14 0.12 0.14 0.12 0.13 0.15 0.24 0.25 0.19 0.16 0.16 0.13 0.16 0.19 0.27 0.31 0.28 0.18 0.30 0.40 0.43 0.41 0.37
0.00 0.00 0.00 0.00 0.00 0.02 0.04 0.06 0.09 0.12 0.16 0.21 0.21 0.22 0.21 0.20 0.24 0.38 0.49 0.42 0.33 0.28 0.27 0.30 0.31 0.33 0.30 0.29 0.26 0.38 0.49 0.56 0.55
0.00 0.00 0.00 0.00 0.00 0.00 0.01 0.05 0.08 0.08 0.13 0.19 0.10 0.09 0.09 0.08 0.06 0.13 0.25 0.33 0.32 0.33 0.37 0.43 0.47 0.52 0.61 0.50 0.41 0.43 0.51 0.55 0.57
0.00 0.00 0.00 0.00 0.01 0.01 0.02 0.05 0.08 0.09 0.16 0.21 0.18 0.07 0.06 0.05 0.04 0.08 0.11 0.17 0.34 0.37 0.39 0.46 0.47 0.47 0.52 0.68 0.65 0.45 0.56 0.73 0.79
0.00 0.00 0.00 0.00 0.01 0.01 0.02 0.04 0.07 0.09 0.11 0.22 0.35 0.28 0.16 0.16 0.16 0.13 0.18 0.25 0.34 0.43 0.60 0.72 0.57 0.51 0.56 0.67 0.71 0.64 0.52 0.63 0.77
0.00 0.00 0.01 0.01 0.01 0.02 0.03 0.05 0.07 0.12 0.12 0.17 0.27 0.39 0.38 0.41 0.34 0.27 0.31 0.44 1.06 1.34 1.16 1.04 1.25 1.28 1.03 0.99 1.09 1.21 1.12 0.93 1.01
0.00 0.01 0.04 0.04 0.03 0.01 0.03 0.08 0.09 0.13 0.18 0.24 0.30 0.40 0.46 0.72 0.77 0.57 0.46 0.42 0.88 0.77 0.71 0.69 0.67 0.97 1.35 1.58 1.32 0.86 0.76 1.07 1.21

GFSFLT1_prec_precacc24_147.txt.gz
Total_Precipitation_Accumulation
0.12 0.16 0.07 0.03 0.01 0.01 0.05 0.08 0.09 0.14 0.06 0.01 0.00 0.01 0.05 0.01 0.00 0.00 0.00 0.01 0.02 0.07 0.11 0.02 0.00 0.00 0.00 0.00 0.00 0.00 0.00 0.00 0.00
0.13 0.13 0.09 0.04 0.02 0.01 0.03 0.08 0.13 0.12 0.09 0.01 0.03 0.07 0.03 0.00 0.00 0.00 0.00 0.00 0.00 0.00 0.01 0.02 0.01 0.00 0.00 0.00 0.00 0.00 0.00 0.00 0.00
0.06 0.09 0.10 0.06 0.02 0.02 0.02 0.05 0.07 0.11 0.17 0.15 0.13 0.07 0.02 0.00 0.00 0.00 0.00 0.00 0.02 0.03 0.01 0.04 0.04 0.03 0.00 0.00 0.00 0.00 0.00 0.00 0.00
0.03 0.07 0.05 0.05 0.06 0.06 0.05 0.05 0.05 0.07 0.19 0.30 0.14 0.04 0.01 0.00 0.00 0.00 0.00 0.00 0.02 0.09 0.10 0.06 0.03 0.05 0.05 0.01 0.00 0.00 0.00 0.00 0.00
0.01 0.01 0.02 0.05 0.04 0.04 0.05 0.05 0.05 0.08 0.17 0.25 0.25 0.05 0.01 0.01 0.00 0.00 0.00 0.01 0.08 0.17 0.11 0.05 0.03 0.04 0.06 0.04 0.02 0.00 0.00 0.00 0.00
0.00 0.00 0.00 0.01 0.02 0.03 0.03 0.04 0.05 0.07 0.08 0.05 0.06 0.09 0.02 0.04 0.03 0.01 0.00 0.04 0.11 0.09 0.06 0.08 0.07 0.06 0.05 0.05 0.04 0.03 0.01 0.00 0.00
0.01 0.00 0.00 0.00 0.00 0.01 0.02 0.03 0.03 0.01 0.00 0.00 0.02 0.05 0.08 0.08 0.04 0.02 0.02 0.07 0.10 0.11 0.13 0.13 0.13 0.11 0.08 0.08 0.08 0.04 0.04 0.02 0.01
0.00 0.00 0.00 0.00 0.00 0.00 0.00 0.00 0.01 0.00 0.01 0.01 0.01 0.08 0.11 0.07 0.06 0.06 0.06 0.08 0.09 0.10 0.11 0.12 0.13 0.12 0.10 0.08 0.09 0.08 0.07 0.07 0.05
0.00 0.00 0.00 0.00 0.00 0.00 0.00 0.00 0.00 0.00 0.02 0.03 0.03 0.04 0.06 0.05 0.04 0.04 0.04 0.04 0.06 0.07 0.08 0.10 0.13 0.13 0.13 0.11 0.11 0.10 0.10 0.09 0.08
0.00 0.00 0.00 0.00 0.00 0.00 0.00 0.01 0.03 0.07 0.09 0.08 0.07 0.05 0.04 0.04 0.04 0.03 0.03 0.03 0.05 0.06 0.06 0.07 0.10 0.12 0.13 0.13 0.13 0.12 0.11 0.10 0.10
0.00 0.00 0.00 0.00 0.00 0.00 0.01 0.02 0.04 0.05 0.08 0.08 0.07 0.05 0.05 0.05 0.06 0.07 0.11 0.08 0.06 0.07 0.07 0.09 0.14 0.16 0.16 0.18 0.18 0.16 0.14 0.14 0.12
0.00 0.00 0.00 0.00 0.00 0.00 0.00 0.02 0.05 0.06 0.07 0.06 0.08 0.12 0.09 0.05 0.06 0.12 0.14 0.13 0.11 0.08 0.08 0.11 0.10 0.12 0.16 0.23 0.25 0.23 0.19 0.16 0.14
0.00 0.00 0.00 0.00 0.00 0.00 0.00 0.01 0.04 0.04 0.07 0.08 0.09 0.11 0.14 0.12 0.12 0.15 0.13 0.12 0.11 0.12 0.10 0.14 0.14 0.10 0.12 0.20 0.27 0.31 0.27 0.22 0.19
0.00 0.00 0.00 0.00 0.00 0.00 0.00 0.01 0.03 0.04 0.05 0.05 0.07 0.07 0.06 0.08 0.12 0.15 0.14 0.14 0.15 0.13 0.16 0.18 0.23 0.28 0.24 0.18 0.30 0.39 0.41 0.40 0.36
0.00 0.00 0.00 0.00 0.00 0.00 0.00 0.00 0.01 0.03 0.05 0.10 0.14 0.18 0.16 0.13 0.09 0.08 0.13 0.12 0.12 0.18 0.23 0.27 0.30 0.31 0.27 0.26 0.25 0.38 0.49 0.56 0.55
0.00 0.00 0.00 0.00 0.00 0.00 0.00 0.01 0.01 0.01 0.03 0.10 0.05 0.06 0.08 0.07 0.04 0.07 0.07 0.08 0.08 0.11 0.22 0.33 0.42 0.50 0.60 0.48 0.39 0.43 0.51 0.55 0.58
0.00 0.00 0.00 0.00 0.00 0.00 0.00 0.01 0.02 0.02 0.05 0.12 0.13 0.06 0.05 0.05 0.04 0.06 0.08 0.12 0.25 0.24 0.26 0.32 0.38 0.43 0.50 0.68 0.64 0.43 0.54 0.71 0.79
0.00 0.00 0.00 0.00 0.00 0.01 0.01 0.01 0.03 0.03 0.03 0.13 0.29 0.25 0.16 0.16 0.15 0.12 0.17 0.23 0.31 0.40 0.55 0.65 0.47 0.41 0.49 0.64 0.70 0.63 0.51 0.62 0.79
0.00 0.00 0.00 0.00 0.01 0.01 0.02 0.03 0.04 0.06 0.06 0.09 0.20 0.34 0.36 0.41 0.34 0.27 0.31 0.42 1.04 1.31 1.11 0.99 1.21 1.26 1.01 0.97 1.06 1.19 1.11 0.93 1.03
0.00 0.00 0.00 0.01 0.02 0.01 0.02 0.03 0.05 0.06 0.09 0.14 0.20 0.30 0.39 0.67 0.76 0.57 0.46 0.42 0.87 0.75 0.68 0.66 0.65 0.96 1.34 1.57 1.31 0.85 0.75 1.07 1.21

GFSFLT1_prec_precacc24_150.txt.gz
Total_Precipitation_Accumulation
0.12 0.14 0.06 0.03 0.01 0.01 0.02 0.05 0.07 0.13 0.06 0.02 0.02 0.03 0.07 0.02 0.00 0.00 0.00 0.01 0.02 0.07 0.12 0.06 0.00 0.00 0.00 0.00 0.00 0.00 0.00 0.00 0.00
0.12 0.11 0.07 0.03 0.02 0.01 0.02 0.06 0.10 0.12 0.09 0.02 0.03 0.07 0.03 0.00 0.00 0.00 0.00 0.00 0.00 0.02 0.02 0.06 0.04 0.05 0.01 0.00 0.00 0.00 0.00 0.00 0.00
0.03 0.06 0.08 0.06 0.02 0.02 0.02 0.04 0.04 0.09 0.17 0.15 0.13 0.07 0.02 0.00 0.00 0.00 0.00 0.00 0.02 0.07 0.04 0.08 0.11 0.07 0.05 0.01 0.00 0.00 0.00 0.00 0.00
0.00 0.03 0.03 0.04 0.05 0.04 0.04 0.04 0.04 0.03 0.11 0.27 0.14 0.04 0.01 0.00 0.00 0.00 0.00 0.00 0.02 0.09 0.13 0.08 0.04 0.06 0.10 0.07 0.02 0.00 0.00 0.00 0.00
0.00 0.00 0.00 0.01 0.02 0.01 0.02 0.03 0.04 0.06 0.06 0.12 0.23 0.05 0.01 0.01 0.00 0.00 0.00 0.01 0.08 0.17 0.11 0.05 0.03 0.04 0.09 0.09 0.08 0.05 0.01 0.00 0.00
0.00 0.00 0.00 0.00 0.00 0.01 0.01 0.01 0.03 0.04 0.01 0.02 0.04 0.08 0.02 0.04 0.03 0.01 0.00 0.04 0.11 0.09 0.07 0.08 0.07 0.06 0.06 0.08 0.08 0.07 0.05 0.03 0.02
0.00 0.00 0.00 0.00 0.00 0.00 0.01 0.02 0.01 0.00 0.00 0.00 0.01 0.03 0.06 0.08 0.04 0.02 0.02 0.07 0.10 0.11 0.12 0.13 0.13 0.11 0.08 0.09 0.11 0.09 0.09 0.08 0.07
0.00 0.00 0.00 0.00 0.00 0.00 0.00 0.00 0.00 0.00 0.01 0.01 0.01 0.03 0.06 0.06 0.06 0.06 0.06 0.08 0.09 0.10 0.11 0.12 0.13 0.12 0.10 0.08 0.09 0.09 0.10 0.11 0.10
0.00 0.00 0.00 0.00 0.00 0.00 0.00 0.00 0.00 0.00 0.01 0.02 0.03 0.04 0.04 0.03 0.03 0.04 0.04 0.04 0.06 0.07 0.08 0.09 0.13 0.13 0.13 0.11 0.11 0.11 0.11 0.10 0.11
0.00 0.00 0.00 0.00 0.00 0.00 0.00 0.00 0.00 0.00 0.00 0.02 0.04 0.04 0.04 0.03 0.03 0.02 0.03 0.03 0.05 0.06 0.06 0.06 0.09 0.12 0.13 0.13 0.13 0.12 0.11 0.11 0.11
0.00 0.00 0.00 0.00 0.00 0.00 0.00 0.00 0.00 0.00 0.00 0.01 0.01 0.01 0.04 0.04 0.04 0.04 0.07 0.07 0.06 0.06 0.06 0.07 0.10 0.15 0.16 0.18 0.18 0.16 0.14 0.14 0.13
0.00 0.00 0.00 0.00 0.00 0.00 0.00 0.00 0.00 0.00 0.00 0.00 0.01 0.03 0.03 0.02 0.04 0.05 0.05 0.09 0.10 0.08 0.08 0.10 0.09 0.10 0.14 0.22 0.25 0.23 0.19 0.15 0.14
0.00 0.00 0.00 0.00 0.00 0.00 0.00 0.00 0.00 0.00 0.00 0.01 0.02 0.03 0.05 0.05 0.04 0.05 0.04 0.05 0.07 0.10 0.09 0.12 0.11 0.09 0.11 0.18 0.26 0.30 0.27 0.22 0.19
0.00 0.00 0.00 0.00 0.00 0.00 0.00 0.00 0.00 0.00 0.00 0.01 0.01 0.01 0.02 0.02 0.03 0.06 0.06 0.06 0.08 0.09 0.15 0.17 0.18 0.22 0.20 0.16 0.26 0.35 0.38 0.38 0.33
0.00 0.00 0.00 0.00 0.00 0.00 0.00 0.00 0.00 0.00 0.00 0.01 0.01 0.04 0.07 0.07 0.05 0.06 0.08 0.07 0.08 0.12 0.15 0.17 0.19 0.22 0.18 0.18 0.20 0.32 0.43 0.50 0.52
0.00 0.00 0.00 0.00 0.00 0.00 0.00 0.00 0.01 0.00 0.01 0.03 0.01 0.02 0.06 0.05 0.02 0.04 0.06 0.07 0.07 0.09 0.15 0.20 0.24 0.28 0.38 0.31 0.28 0.36 0.47 0.51 0.55
0.00 0.00 0.00 0.00 0.00 0.00 0.00 0.00 0.01 0.01 0.02 0.06 0.06 0.03 0.03 0.04 0.03 0.05 0.07 0.10 0.25 0.24 0.23 0.26 0.28 0.28 0.29 0.47 0.48 0.32 0.47 0.66 0.76
0.00 0.00 0.00 0.00 0.00 0.00 0.00 0.00 0.02 0.02 0.01 0.08 0.17 0.14 0.11 0.14 0.14 0.12 0.16 0.23 0.31 0.40 0.55 0.65 0.45 0.36 0.39 0.51 0.53 0.47 0.40 0.56 0.75
0.00 0.00 0.00 0.00 0.00 0.00 0.00 0.00 0.01 0.02 0.02 0.05 0.15 0.24 0.29 0.37 0.33 0.27 0.31 0.42 1.04 1.31 1.11 0.98 1.19 1.22 0.93 0.82 0.84 0.95 0.89 0.74 0.92
0.00 0.00 0.00 0.00 0.00 0.00 0.00 0.00 0.01 0.02 0.04 0.08 0.14 0.21 0.25 0.52 0.64 0.49 0.42 0.39 0.85 0.71 0.64 0.61 0.61 0.94 1.31 1.52 1.25 0.79 0.70 1.01 1.17

GFSFLT1_prec_precacc24_153.txt.gz
Total_Precipitation_Accumulation
0.05 0.09 0.05 0.03 0.01 0.01 0.02 0.03 0.05 0.11 0.06 0.02 0.03 0.03 0.07 0.02 0.00 0.00 0.00 0.01 0.02 0.07 0.12 0.08 0.03 0.00 0.00 0.00 0.00 0.00 0.00 0.00 0.00
0.05 0.05 0.04 0.01 0.01 0.01 0.02 0.06 0.08 0.08 0.07 0.02 0.03 0.07 0.03 0.00 0.00 0.00 0.00 0.00 0.00 0.02 0.02 0.07 0.08 0.10 0.04 0.00 0.00 0.00 0.00 0.00 0.00
0.00 0.01 0.03 0.02 0.01 0.01 0.01 0.03 0.04 0.05 0.09 0.11 0.13 0.07 0.02 0.00 0.00 0.00 0.00 0.00 0.02 0.07 0.04 0.08 0.11 0.07 0.08 0.05 0.04 0.01 0.00 0.00 0.00
0.00 0.00 0.00 0.00 0.01 0.00 0.00 0.00 0.00 0.01 0.06 0.14 0.10 0.03 0.01 0.00 0.00 0.00 0.00 0.00 0.02 0.10 0.14 0.09 0.04 0.06 0.10 0.10 0.08 0.04 0.03 0.01 0.00
0.00 0.00 0.00 0.00 0.00 0.00 0.00 0.00 0.01 0.03 0.04 0.04 0.07 0.03 0.01 0.01 0.00 0.00 0.00 0.01 0.08 0.17 0.12 0.05 0.04 0.05 0.09 0.11 0.12 0.11 0.06 0.02 0.01
0.00 0.00 0.00 0.00 0.00 0.00 0.00 0.00 0.02 0.02 0.00 0.00 0.02 0.06 0.02 0.04 0.02 0.01 0.00 0.04 0.11 0.09 0.07 0.08 0.07 0.06 0.06 0.08 0.12 0.10 0.07 0.05 0.06
0.00 0.00 0.00 0.00 0.00 0.00 0.00 0.00 0.00 0.00 0.00 0.00 0.01 0.03 0.04 0.06 0.04 0.02 0.02 0.07 0.10 0.11 0.12 0.13 0.13 0.11 0.08 0.09 0.12 0.11 0.11 0.11 0.10
0.00 0.00 0.00 0.00 0.00 0.00 0.00 0.00 0.00 0.00 0.01 0.01 0.01 0.03 0.05 0.04 0.05 0.06 0.06 0.08 0.09 0.10 0.11 0.11 0.13 0.12 0.10 0.08 0.09 0.09 0.11 0.13 0.13
0.00 0.00 0.00 0.00 0.00 0.00 0.00 0.00 0.00 0.00 0.00 0.01 0.01 0.03 0.04 0.03 0.03 0.04 0.04 0.04 0.06 0.07 0.08 0.09 0.12 0.13 0.13 0.11 0.11 0.11 0.11 0.10 0.11
0.00 0.00 0.00 0.00 0.00 0.00 0.00 0.00 0.00 0.00 0.00 0.00 0.00 0.01 0.03 0.03 0.03 0.02 0.02 0.02 0.05 0.06 0.06 0.06 0.07 0.11 0.12 0.13 0.13 0.12 0.11 0.11 0.11
0.00 0.00 0.00 0.00 0.00 0.00 0.00 0.00 0.00 0.00 0.00 0.00 0.00 0.00 0.02 0.02 0.02 0.03 0.03 0.02 0.04 0.06 0.06 0.07 0.07 0.10 0.13 0.16 0.17 0.16 0.14 0.14 0.13
0.00 0.00 0.00 0.00 0.00 0.00 0.00 0.00 0.00 0.00 0.00 0.00 0.00 0.00 0.00 0.01 0.01 0.02 0.03 0.04 0.03 0.05 0.07 0.10 0.09 0.07 0.09 0.16 0.23 0.22 0.18 0.15 0.14
0.00 0.00 0.00 0.00 0.00 0.00 0.00 0.00 0.00 0.00 0.00 0.00 0.00 0.00 0.00 0.00 0.00 0.01 0.02 0.02 0.03 0.04 0.06 0.11 0.11 0.09 0.09 0.14 0.21 0.27 0.26 0.22 0.19
0.00 0.00 0.00 0.00 0.00 0.00 0.00 0.00 0.00 0.00 0.00 0.00 0.00 0.00 0.00 0.01 0.01 0.01 0.01 0.02 0.03 0.03 0.07 0.13 0.16 0.21 0.19 0.13 0.20 0.29 0.32 0.33 0.30
0.00 0.00 0.00 0.00 0.00 0.00 0.00 0.00 0.00 0.00 0.00 0.00 0.00 0.00 0.00 0.01 0.02 0.03 0.03 0.02 0.03 0.04 0.05 0.07 0.13 0.17 0.16 0.16 0.15 0.26 0.35 0.42 0.46
0.00 0.00 0.00 0.00 0.00 0.00 0.00 0.00 0.00 0.00 0.00 0.01 0.00 0.00 0.00 0.00 0.01 0.02 0.03 0.03 0.04 0.06 0.07 0.11 0.15 0.22 0.35 0.27 0.20 0.24 0.33 0.40 0.46
0.00 0.00 0.00 0.00 0.00 0.00 0.00 0.00 0.00 0.00 0.00 0.02 0.02 0.01 0.00 0.00 0.01 0.03 0.05 0.04 0.10 0.13 0.17 0.23 0.25 0.27 0.29 0.45 0.43 0.23 0.34 0.52 0.62
0.00 0.00 0.00 0.00 0.00 0.00 0.00 0.00 0.00 0.01 0.00 0.01 0.06 0.05 0.05 0.08 0.11 0.11 0.15 0.19 0.23 0.28 0.49 0.63 0.45 0.36 0.39 0.51 0.52 0.44 0.34 0.47 0.64
0.00 0.00 0.00 0.00 0.00 0.00 0.00 0.00 0.00 0.00 0.00 0.00 0.01 0.06 0.13 0.27 0.29 0.26 0.30 0.41 1.02 1.28 1.09 0.98 1.19 1.21 0.93 0.82 0.82 0.92 0.82 0.65 0.79
0.00 0.00 0.00 0.00 0.00 0.00 0.00 0.00 0.00 0.00 0.00 0.00 0.01 0.01 0.05 0.36 0.52 0.44 0.37 0.36 0.82 0.67 0.58 0.55 0.56 0.91 1.28 1.50 1.22 0.75 0.64 0.92 1.05